Regional Weather Roundup
Issued by NWS

Home | Current Version | Previous Version | Graphics & Text | Print | Product List | Glossary On
Versions: 1 2 3 4 5 6 7 8 9 10 11 12 13 14 15 16 17 18 19 20 21 22 23 24 25 26 27 28 29 30 31 32 33 34 35 36 37 38 39 40 41 42 43 44 45 46 47 48 49 50
000
ASUS43 KFSD 080002
RWRSD

WEATHER ROUNDUP FOR SOUTH DAKOTA
NATIONAL WEATHER SERVICE SIOUX FALLS SD
600 PM CST WED DEC 07 2016

NOTE: "FAIR" INDICATES FEW OR NO CLOUDS BELOW 12,000 FEET WITH NO
SIGNIFICANT WEATHER AND/OR OBSTRUCTIONS TO VISIBILITY.


SDZ001>005-009-010-012>017-080100-
NORTHWEST AND NORTH CENTRAL SOUTH DAKOTA

CITY           SKY/WX    TMP DP  RH WIND       PRES   REMARKS
BUFFALO          N/A      2  -5  72 NW23      30.34R WCI -21
FAITH            N/A      4  -2  76 NW29G37   30.39R WCI -20
MOBRIDGE       CLOUDY     7  -2  66 NW29G39   30.35R WCI -16
$$

SDZ012>016-024>037-041>051-057-063-072>074-080100-
SOUTHWEST AND SOUTH CENTRAL SOUTH DAKOTA

CITY           SKY/WX    TMP DP  RH WIND       PRES   REMARKS
RAPID CTY ARPT PTCLDY     7  -5  57 N20       30.38R WCI -13
PIERRE         CLOUDY    11   1  64 NW29G39   30.41R WCI -11
CUSTER         CLEAR      0 -11  59 CALM      30.18R
ELLSWORTH AFB  CLEAR      7  -5  57 NW15      30.38R WCI -10
PHILIP         PTCLDY     8  -1  66 NW21G28   30.44R WCI -12
PINE RIDGE     CLEAR      0  -5  79 CALM      30.39R
SPEARFISH      FAIR       3  -6  66 W12G18    30.37R WCI -13
WINNER         FAIR      12   1  61 NW20      30.41R WCI  -6
$$

SDZ004>011-016>023-039-040-080100-
NORTHEAST SOUTH DAKOTA

CITY           SKY/WX    TMP DP  RH WIND       PRES   REMARKS
ABERDEEN       LGT SNOW   9   0  67 NW32G39   30.31R WCI -14
WATERTOWN      CLOUDY     7   2  80 W22G31    30.22R HAZE    WCI -14
SISSETON         N/A     12   5  73 NW23G32   30.20R WCI  -7
$$

SDZ017-020-022-023-036>040-048>070-080100-
SOUTHEAST SOUTH DAKOTA

CITY           SKY/WX    TMP DP  RH WIND       PRES   REMARKS
SIOUX FALLS    PTCLDY    15   6  67 W23G32    30.28R WCI  -3
HURON          CLOUDY    12   3  67 NW26G37   30.35R WCI  -8
CHAMBERLAIN    CLOUDY    14   4  65 NW20G31   30.41R WCI  -4
MITCHELL       CLOUDY    15   5  64 NW24G33   30.38R WCI  -4
YANKTON        PTCLDY    16   3  57 W22G32    30.36R WCI  -2
$$

ABBREVIATIONS USED IN REMARKS
   TC - TEMPERATURE IN CELSIUS
  WCI - WIND CHILL INDEX
   HX - HEAT INDEX
  VSB - VISIBILITY





USA.gov is the U.S. government's official web portal to all federal, state and local government web resources and services.